Basrah, Iraq

3:57 AM +03 on October 24, 2017 (GMT +0300)
Basrah International

Weather History for ORMM - November, 2012

Change the Weather History Date:

Saturday, November 24, 2012

  Actual Average Record
Temperature  
Mean Temperature 66 °F -  
Max Temperature 73 °F - - ()
Min Temperature 60 °F - - ()
Cooling Degree Days 2    
Growing Degree Days 16 (Base 50)    
Moisture  
Dew Point 64 °F    
Average Humidity 92    
Maximum Humidity 100    
Minimum Humidity 65    
Precipitation  
Precipitation 0.00 in - - ()
Sea Level Pressure  
Sea Level Pressure 29.93 in    
Wind  
Wind Speed 5 mph ()    
Max Wind Speed 14 mph    
Max Gust Speed -    
Visibility 3.3 miles    
Events      
T = Trace of Precipitation, MM = Missing Value Source: Averaged Metar Reports

Daily Weather History Graph

Daily Weather History Graph

Search for Another Location

Airport or City:

Trip Planner

Search our weather history database for the weather conditions in past years. The results will help you decide how hot, cold, wet, or windy it might be!

Date:

Astronomy

Nov. 24, 2012 Rise Set
Actual Time 6:22 AM +03 4:48 PM +03
Civil Twilight 5:56 AM +03 5:14 PM +03
Nautical Twilight 5:27 AM +03 5:43 PM +03
Astronomical Twilight 4:58 AM +03 6:12 PM +03
Moon 2:09 PM +03 2:30 AM +03
Length of Visible Light 11h 17m
Length of Day
10h 25m
Waxing Gibbous, 84% of the Moon is Illuminated
Nov 24
Waxing Gibbous
Nov 28
Full
Dec 6
Last Quarter
Dec 13
New
Dec 20
First Quarter

Hourly Weather History & Observations

Time (+03) Temp. Dew Point Humidity Pressure Visibility Wind Dir Wind Speed Gust Speed Precip Events Conditions
12:00 AM 62 °F 59 °F 88% 29.95 in 6 mi NNE 6.7 mph - -   Mostly Cloudy
12:00 AM 60.8 °F 60.8 °F 100% 29.95 in 5.0 mi ESE 6.9 mph - N/A   Unknown
1:00 AM 62.6 °F 62.6 °F 100% 29.92 in 5.0 mi NE 6.9 mph - N/A   Unknown
2:00 AM 62.6 °F 62.6 °F 100% 29.92 in 5.0 mi ENE 4.6 mph - N/A   Unknown
3:00 AM 62 °F 60 °F 91% 29.91 in 6 mi NNE 4.6 mph - -   Partly Cloudy
3:00 AM 60.8 °F 60.8 °F 100% 29.92 in 3.7 mi ENE 6.9 mph - N/A   Unknown
4:00 AM 60.8 °F 60.8 °F 100% 29.92 in 3.7 mi ENE 6.9 mph - N/A   Unknown
5:00 AM 62.6 °F 62.6 °F 100% 29.92 in 3.7 mi ENE 6.9 mph - N/A   Unknown
6:00 AM 63 °F 62 °F 94% 29.94 in 6 mi NNE 4.5 mph - -   Mostly Cloudy
6:00 AM 62.6 °F 62.6 °F 100% 29.92 in 3.7 mi Calm Calm - N/A   Unknown
7:00 AM 62.6 °F 62.6 °F 100% 29.95 in 1.6 mi Calm Calm - N/A   Scattered Clouds
8:00 AM 64.4 °F 64.4 °F 100% 29.95 in 1.6 mi ENE 6.9 mph - N/A   Partly Cloudy
9:00 AM 66 °F 63 °F 87% 29.95 in 6 mi East 6.7 mph - -  
9:00 AM 66.2 °F 66.2 °F 100% 29.95 in 1.9 mi NE 4.6 mph - N/A   Clear
10:00 AM 69.8 °F 69.8 °F 100% 29.95 in 2.2 mi East 5.8 mph - N/A   Clear
11:00 AM 73.4 °F 64.4 °F 73% 29.92 in 3.1 mi Calm Calm - N/A   Haze
12:00 PM 72 °F 63 °F 65% 29.91 in 6 mi ESE 8.9 mph - -   Partly Cloudy
12:00 PM 73.4 °F 64.4 °F 73% 29.92 in 2.5 mi Calm Calm - N/A   Haze
1:00 PM - - N/A% 29.89 in 2.2 mi Calm Calm - N/A   Haze
2:00 PM 73.4 °F 66.2 °F 78% 29.89 in 2.2 mi ENE 6.9 mph - N/A   Haze
3:00 PM 73.4 °F 64.4 °F 73% 29.89 in 2.2 mi NE 6.9 mph - N/A   Haze
4:00 PM 73.4 °F 66.2 °F 78% 29.89 in 3.1 mi NE 5.8 mph - N/A   Mostly Cloudy
5:00 PM 71.6 °F 68.0 °F 88% 29.92 in 2.5 mi ENE 6.9 mph - N/A   Scattered Clouds
6:00 PM 70 °F 64 °F 75% 29.93 in 6 mi Calm Calm - -   Partly Cloudy
6:00 PM 68.0 °F 68.0 °F 100% 29.92 in 3.7 mi ENE 6.9 mph - N/A   Mostly Cloudy
7:00 PM 66.2 °F 66.2 °F 100% 29.95 in 1.2 mi West 13.8 mph - N/A   Mostly Cloudy
8:00 PM 66.2 °F 66.2 °F 100% 29.95 in 0.6 mi WNW 9.2 mph - N/A   Mist
9:00 PM 66.2 °F 66.2 °F 100% 29.98 in 0.9 mi West 6.9 mph - N/A   Mist
10:00 PM 64.4 °F 64.4 °F 100% 29.98 in 0.9 mi WSW 6.9 mph - N/A   Mist
11:00 PM 62.6 °F 62.6 °F 100% 29.98 in 0.9 mi WSW 5.8 mph - N/A   Mist